Showing default

COSMOS 2254, 22689

Orbit data source: Space-Track

COSMOS 2254, 22689 is a payload satellite owned by VKS (CIS) in LEO that was launched on Thu, 24 Jun 1993 UTC via a TSIKLON-3 launch vehicle from the Plesetsk Missile And Space Complex (PKMTR). Payload-class satellites include a variety of spacecraft equipped with specific instruments for various scientific and technological missions. These include communications satellites like Starlink; space stations such as the ISS; scientific satellites like the Hubble; Earth observation satellites from companies like Planet Labs, Umbra, and HawkEye 360; GPS; miniature CubeSats for education and research; and military/defense satellites.

Loading next visibility...
Identifier
22689, 1993-038C
Orbit
LEO
Country
Flag of CISCIS
Related business
Manufacturer
NPO PM
Mission
Defense Communications
Bus & Motor
STRELA-3, Unknown motor
Mass
225 kg wet, 225 kg dry
Launch date (UTC)
1993-06-24 (32 years ago)
Launch vehicle
TSIKLON-3
Launch site
Plesetsk Missile And Space Complex (PKMTR)
Object type
Payload
Rocket body
Debris
Shape & HBR
Cyl, 0.8 m
Radar Cross Section
1.257 m², Large (>1 m²)

Expand to show TLE details & history
Last TLE update: 11 hours ago

TLE from 11 hours ago
0 COSMOS 2254
1 22689U 93038C   25311.14811517  .00000032  00000-0  11472-3 0  9993
2 22689  82.5830 346.3990 0013136  95.3234 320.4251 12.64906784494066
Epoch: 2025-11-07T03:33Z
TLE epoch observation values (Epoch: 2025-11-07T03:33:17.150Z)
Latitude
55.04905°
Longitude
-102.83816°
Altitude
1,403.937 km
Speed
7.167 km/s
True Right ascension
23h 48m 19s
True Declination
54° 54' 03"
Sunlit
Object was in full shadow at epoch
Visualization orbit readout
Latitude
Unknown
Longitude
Unknown
Altitude
Unknown
Speed
Unknown
Apparent Right ascension
Unknown
Apparent Declination
Unknown
Sunlit
N/A
Visualization observer readout
Local Sidereal Time
10:11:15
Azimuth
Unknown
Elevation
Unknown
Doppler factor
Unknown
Orbital elements
Apogee altitude
1,410.291 km
Perigee altitude
1,389.856 km
Semi-major axis
7,778.211 km
Eccentricity
0.00131
Inclination
82.583°
RAAN
346.399°
Arg. of periapsis
95.3234°
True anomaly
320.32908°
Mean anomaly
320.4251°
Eccentric anomaly
320.3771°
Mean motion
3.16391 °/min
Orbital period
113.78 mins
BSTAR
0.00011472
Loading maneuver chart data...
Computing Atmospheric mass density...
Loading historical data...
Loading historical data...
Loading historical data...
Loading historical data...
Loading historical data...
Loading historical data...
Loading historical data...

Documentation

Showing up to 5 results
|